"Period start","avg(HW err(1)/warn(2) (#))","avg(Visibility (m))","avg(Weather code (#))","avg(Precip intensity (mm/h))","min(HW err(1)/warn(2) (#))","max(HW err(1)/warn(2) (#))","std(HW err(1)/warn(2) (#))","med(HW err(1)/warn(2) (#))","min(Visibility (m))","max(Visibility (m))","std(Visibility (m))","med(Visibility (m))","min(Weather code (#))","max(Weather code (#))","std(Weather code (#))","med(Weather code (#))","min(Precip intensity (mm/h))","max(Precip intensity (mm/h))","std(Precip intensity (mm/h))","med(Precip intensity (mm/h))"
2017-04-13 00:00:00,2,27575,0,0.00,2,2,0,2,16149,46535,8927,24616,0,0,0,0,0.00,0.00,0.00,0.00
2017-04-13 00:10:00,2,38302,0,0.00,2,2,0,2,22378,50000,8262,38276,0,0,0,0,0.00,0.00,0.00,0.00
2017-04-13 00:20:00,2,34150,0,0.00,2,2,0,2,17855,45126,7783,34992,0,0,0,0,0.00,0.00,0.00,0.00
2017-04-13 00:30:00,2,32619,0,0.00,2,2,0,2,20251,50000,9812,30514,0,0,0,0,0.00,0.00,0.00,0.00
2017-04-13 00:40:00,2,27491,0,0.00,2,2,0,2,19785,40360,5889,26502,0,0,0,0,0.00,0.00,0.00,0.00
2017-04-13 00:50:00,2,32299,0,0.00,2,2,0,2,23003,46006,8600,29552,0,0,0,0,0.00,0.00,0.00,0.00
2017-04-13 01:00:00,2,31048,0,0.00,2,2,0,2,21276,47102,7672,29773,0,0,0,0,0.00,0.00,0.00,0.00
2017-04-13 01:10:00,2,34654,0,0.00,2,2,0,2,28059,50000,5883,34353,0,0,0,0,0.00,0.00,0.00,0.00
2017-04-13 01:20:00,2,34389,0,0.00,2,2,0,2,24764,50000,8339,32000,0,0,0,0,0.00,0.00,0.00,0.00
2017-04-13 01:30:00,2,29630,0,0.00,2,2,0,2,21333,39864,6275,28124,0,0,0,0,0.00,0.00,0.00,0.00
2017-04-13 01:40:00,2,28003,0,0.00,2,2,0,2,17911,42909,6462,28398,0,0,0,0,0.00,0.00,0.00,0.00
2017-04-13 01:50:00,2,36785,0,0.00,2,2,0,2,24768,49074,6950,35678,0,0,0,0,0.00,0.00,0.00,0.00
2017-04-13 02:00:00,2,33331,0,0.00,2,2,0,2,21333,48947,8177,31484,0,0,0,0,0.00,0.00,0.00,0.00
2017-04-13 02:10:00,2,24617,0,0.00,2,2,0,2,18377,36280,5545,23832,0,0,0,0,0.00,0.00,0.00,0.00
2017-04-13 02:20:00,2,34934,0,0.00,2,2,0,2,17874,50000,9571,37856,0,0,0,0,0.00,0.00,0.00,0.00
2017-04-13 02:30:00,2,35570,0,0.00,2,2,0,2,16263,50000,9852,35367,0,0,0,0,0.00,0.00,0.00,0.00
2017-04-13 02:40:00,2,32389,0,0.00,2,2,0,2,20731,50000,10718,31572,0,0,0,0,0.00,0.00,0.00,0.00
2017-04-13 02:50:00,2,33328,0,0.00,2,2,0,2,22946,45191,6950,32512,0,0,0,0,0.00,0.00,0.00,0.00
2017-04-13 03:00:00,2,32486,0,0.00,2,2,0,2,26421,46211,5458,30806,0,0,0,0,0.00,0.00,0.00,0.00
2017-04-13 03:10:00,2,35041,0,0.00,2,2,0,2,21741,50000,8963,34296,0,0,0,0,0.00,0.00,0.00,0.00
2017-04-13 03:20:00,2,39794,0,0.00,2,2,0,2,25285,49452,8878,41226,0,0,0,0,0.00,0.00,0.00,0.00
2017-04-13 03:30:00,2,33606,0,0.00,2,2,0,2,22761,50000,7883,33730,0,0,0,0,0.00,0.00,0.00,0.00
2017-04-13 03:40:00,2,34961,0,0.00,2,2,0,2,28638,50000,6481,32843,0,0,0,0,0.00,0.00,0.00,0.00
2017-04-13 03:50:00,2,41762,0,0.00,2,2,0,2,26984,50000,9753,48340,0,0,0,0,0.00,0.00,0.00,0.00
2017-04-13 04:00:00,2,31248,0,0.00,2,2,0,2,17379,42303,7745,31230,0,0,0,0,0.00,0.00,0.00,0.00
2017-04-13 04:10:00,2,32679,0,0.00,2,2,0,2,17033,48499,8685,33700,0,0,0,0,0.00,0.00,0.00,0.00
2017-04-13 04:20:00,2,36411,0,0.00,2,2,0,2,27011,50000,7683,35122,0,0,0,0,0.00,0.00,0.00,0.00
2017-04-13 04:30:00,2,37104,0,0.00,2,2,0,2,31343,49847,5847,33963,0,0,0,0,0.00,0.00,0.00,0.00
2017-04-13 04:40:00,2,39651,0,0.00,2,2,0,2,18686,48396,9501,43141,0,0,0,0,0.00,0.00,0.00,0.00
2017-04-13 04:50:00,2,30646,0,0.00,2,2,0,2,18492,40624,7144,30692,0,0,0,0,0.00,0.00,0.00,0.00
2017-04-13 05:00:00,2,33521,0,0.00,2,2,0,2,26855,43077,4980,31896,0,0,0,0,0.00,0.00,0.00,0.00
2017-04-13 05:10:00,2,38705,0,0.00,2,2,0,2,27148,48768,6539,40548,0,0,0,0,0.00,0.00,0.00,0.00
2017-04-13 05:20:00,2,43137,0,0.00,2,2,0,2,35104,50000,5053,41575,0,0,0,0,0.00,0.00,0.00,0.00
2017-04-13 05:30:00,2,47741,0,0.00,2,2,0,2,41271,50000,3109,49538,0,0,0,0,0.00,0.00,0.00,0.00
2017-04-13 05:40:00,2,38179,0,0.00,2,2,0,2,28196,50000,7636,37360,0,0,0,0,0.00,0.00,0.00,0.00
2017-04-13 05:50:00,2,41193,0,0.00,2,2,0,2,29838,50000,7073,40600,0,0,0,0,0.00,0.00,0.00,0.00
2017-04-13 06:00:00,2,40685,0,0.00,2,2,0,2,26484,49441,7521,41794,0,0,0,0,0.00,0.00,0.00,0.00
2017-04-13 06:10:00,2,37112,0,0.00,2,2,0,2,28356,48566,6276,36093,0,0,0,0,0.00,0.00,0.00,0.00
2017-04-13 06:20:00,2,46680,0,0.00,2,2,0,2,42432,50000,2462,47078,0,0,0,0,0.00,0.00,0.00,0.00
2017-04-13 06:30:00,2,43701,0,0.00,2,2,0,2,29608,50000,6909,45660,0,0,0,0,0.00,0.00,0.00,0.00
2017-04-13 06:40:00,2,41538,0,0.00,2,2,0,2,32824,50000,6032,42993,0,0,0,0,0.00,0.00,0.00,0.00
2017-04-13 06:50:00,2,35041,0,0.00,2,2,0,2,27739,45796,5503,34862,0,0,0,0,0.00,0.00,0.00,0.00
2017-04-13 07:00:00,2,40330,0,0.00,2,2,0,2,26085,47573,6067,42810,0,0,0,0,0.00,0.00,0.00,0.00
2017-04-13 07:10:00,2,37560,0,0.00,2,2,0,2,27941,47483,5918,37786,0,0,0,0,0.00,0.00,0.00,0.00
2017-04-13 07:20:00,2,35635,0,0.00,2,2,0,2,28193,42353,5375,34758,0,0,0,0,0.00,0.00,0.00,0.00
2017-04-13 07:30:00,2,39183,0,0.00,2,2,0,2,25890,50000,8168,39434,0,0,0,0,0.00,0.00,0.00,0.00
2017-04-13 07:40:00,2,44982,0,0.00,2,2,0,2,33840,50000,4359,45399,0,0,0,0,0.00,0.00,0.00,0.00
2017-04-13 07:50:00,2,45127,0,0.00,2,2,0,2,36610,50000,4676,45875,0,0,0,0,0.00,0.00,0.00,0.00
2017-04-13 08:00:00,2,36563,0,0.00,2,2,0,2,29835,45388,4294,36378,0,0,0,0,0.00,0.00,0.00,0.00
2017-04-13 08:10:00,2,38051,0,0.00,2,2,0,2,31444,49327,5147,39319,0,0,0,0,0.00,0.00,0.00,0.00
2017-04-13 08:20:00,2,39445,0,0.00,2,2,0,2,30516,47177,5030,39656,0,0,0,0,0.00,0.00,0.00,0.00
2017-04-13 08:30:00,2,39991,0,0.00,2,2,0,2,32049,50000,5029,41002,0,0,0,0,0.00,0.00,0.00,0.00
2017-04-13 08:40:00,2,38576,0,0.00,2,2,0,2,31631,45187,4853,40404,0,0,0,0,0.00,0.00,0.00,0.00
2017-04-13 08:50:00,2,38898,0,0.00,2,2,0,2,27914,50000,6645,39917,0,0,0,0,0.00,0.00,0.00,0.00
2017-04-13 09:00:00,2,42366,0,0.00,2,2,0,2,27608,50000,6974,44072,0,0,0,0,0.00,0.00,0.00,0.00
2017-04-13 09:10:00,2,39160,0,0.00,2,2,0,2,32644,50000,5941,37286,0,0,0,0,0.00,0.00,0.00,0.00
2017-04-13 09:20:00,2,40957,0,0.00,2,2,0,2,33090,50000,5333,38771,0,0,0,0,0.00,0.00,0.00,0.00
2017-04-13 09:30:00,2,45603,0,0.00,2,2,0,2,33049,50000,5888,48720,0,0,0,0,0.00,0.00,0.00,0.00
2017-04-13 09:40:00,2,46505,0,0.00,2,2,0,2,41600,48685,2358,47472,0,0,0,0,0.00,0.00,0.00,0.00
2017-04-13 09:50:00,2,44371,0,0.00,2,2,0,2,36575,50000,5275,45652,0,0,0,0,0.00,0.00,0.00,0.00
2017-04-13 10:00:00,2,44026,0,0.00,2,2,0,2,32651,50000,5039,44824,0,0,0,0,0.00,0.00,0.00,0.00
2017-04-13 10:10:00,2,43452,0,0.00,2,2,0,2,36669,50000,4503,42700,0,0,0,0,0.00,0.00,0.00,0.00
2017-04-13 10:20:00,2,48061,0,0.00,2,2,0,2,43611,50000,2230,49207,0,0,0,0,0.00,0.00,0.00,0.00
2017-04-13 10:30:00,2,47469,0,0.00,2,2,0,2,41427,50000,2464,47944,0,0,0,0,0.00,0.00,0.00,0.00
2017-04-13 10:40:00,2,48179,0,0.00,2,2,0,2,41020,50000,2765,49759,0,0,0,0,0.00,0.00,0.00,0.00
2017-04-13 10:50:00,2,43948,0,0.00,2,2,0,2,32463,50000,6203,45098,0,0,0,0,0.00,0.00,0.00,0.00
2017-04-13 11:00:00,2,36453,0,0.00,2,2,0,2,30561,40794,3545,36694,0,0,0,0,0.00,0.00,0.00,0.00
2017-04-13 11:10:00,2,34650,0,0.00,2,2,0,2,27649,44157,5200,35208,0,0,0,0,0.00,0.00,0.00,0.00
2017-04-13 11:20:00,2,43122,0,0.00,2,2,0,2,36702,50000,5485,42414,0,0,0,0,0.00,0.00,0.00,0.00
2017-04-13 11:30:00,2,42516,0,0.00,2,2,0,2,39565,46734,2175,42322,0,0,0,0,0.00,0.00,0.00,0.00
2017-04-13 11:40:00,2,45059,0,0.00,2,2,0,2,38675,50000,3786,45296,0,0,0,0,0.00,0.00,0.00,0.00
2017-04-13 11:50:00,2,43426,0,0.00,2,2,0,2,37119,48516,3597,43116,0,0,0,0,0.00,0.00,0.00,0.00
2017-04-13 12:00:00,2,43031,0,0.00,2,2,0,2,37271,49674,3783,42915,0,0,0,0,0.00,0.00,0.00,0.00
2017-04-13 12:10:00,2,46446,0,0.00,2,2,0,2,40100,50000,2987,46819,0,0,0,0,0.00,0.00,0.00,0.00
2017-04-13 12:20:00,2,44830,0,0.00,2,2,0,2,35456,50000,4378,46041,0,0,0,0,0.00,0.00,0.00,0.00
2017-04-13 12:30:00,2,46637,0,0.00,2,2,0,2,43691,50000,1876,46752,0,0,0,0,0.00,0.00,0.00,0.00
2017-04-13 12:40:00,2,46207,0,0.00,2,2,0,2,36249,50000,4272,48046,0,0,0,0,0.00,0.00,0.00,0.00
2017-04-13 12:50:00,2,46076,0,0.00,2,2,0,2,42911,50000,2816,45548,0,0,0,0,0.00,0.00,0.00,0.00
2017-04-13 13:00:00,2,47705,0,0.00,2,2,0,2,43212,50000,2617,49366,0,0,0,0,0.00,0.00,0.00,0.00
2017-04-13 13:10:00,2,42726,0,0.00,2,2,0,2,35109,48060,3949,43830,0,0,0,0,0.00,0.00,0.00,0.00
2017-04-13 13:20:00,2,32562,0,0.00,2,2,0,2,18923,39691,6744,34318,0,0,0,0,0.00,0.00,0.00,0.00
2017-04-13 13:30:00,2,35904,0,0.00,2,2,0,2,29204,42211,3697,34921,0,0,0,0,0.00,0.00,0.00,0.00
2017-04-13 13:40:00,2,26338,22,0.00,2,2,0,2,17814,33681,4490,25932,0,78,34,0,0.00,0.00,0.00,0.00
2017-04-13 13:50:00,2,28941,78,0.00,2,2,0,2,22617,39780,4697,27794,78,78,0,78,0.00,0.00,0.00,0.00
2017-04-13 14:00:00,2,34426,23,0.00,2,2,0,2,26517,44089,6201,34804,0,78,36,0,0.00,0.00,0.00,0.00
2017-04-13 14:10:00,2,42060,0,0.00,2,2,0,2,36094,48036,3867,41669,0,0,0,0,0.00,0.00,0.00,0.00
2017-04-13 14:20:00,2,43056,0,0.00,2,2,0,2,35919,50000,3926,43514,0,0,0,0,0.00,0.00,0.00,0.00
2017-04-13 14:30:00,2,46540,0,0.00,2,2,0,2,42969,50000,2073,47016,0,0,0,0,0.00,0.00,0.00,0.00
2017-04-13 14:40:00,2,44804,0,0.00,2,2,0,2,35861,48432,3621,45742,0,0,0,0,0.00,0.00,0.00,0.00
2017-04-13 14:50:00,2,45143,0,0.00,2,2,0,2,39636,50000,3688,45504,0,0,0,0,0.00,0.00,0.00,0.00
2017-04-13 15:00:00,2,48833,0,0.00,2,2,0,2,43995,50000,2000,50000,0,0,0,0,0.00,0.00,0.00,0.00
2017-04-13 15:10:00,2,47306,0,0.00,2,2,0,2,41561,50000,2881,48132,0,0,0,0,0.00,0.00,0.00,0.00
2017-04-13 15:20:00,2,47856,0,0.00,2,2,0,2,44244,50000,2410,49307,0,0,0,0,0.00,0.00,0.00,0.00
2017-04-13 15:30:00,2,45589,0,0.00,2,2,0,2,39396,50000,4028,45744,0,0,0,0,0.00,0.00,0.00,0.00
2017-04-13 15:40:00,2,48065,0,0.00,2,2,0,2,41582,50000,3054,50000,0,0,0,0,0.00,0.00,0.00,0.00
2017-04-13 15:50:00,2,48374,0,0.00,2,2,0,2,44912,50000,1879,49384,0,0,0,0,0.00,0.00,0.00,0.00
2017-04-13 16:00:00,2,49203,0,0.00,2,2,0,2,46784,50000,1186,50000,0,0,0,0,0.00,0.00,0.00,0.00
2017-04-13 16:10:00,2,48917,0,0.00,2,2,0,2,44924,50000,1533,49580,0,0,0,0,0.00,0.00,0.00,0.00
2017-04-13 16:20:00,2,46606,0,0.00,2,2,0,2,38031,50000,3936,47674,0,0,0,0,0.00,0.00,0.00,0.00
2017-04-13 16:30:00,2,49571,0,0.00,2,2,0,2,46969,50000,932,50000,0,0,0,0,0.00,0.00,0.00,0.00
2017-04-13 16:40:00,2,47508,0,0.00,2,2,0,2,43666,50000,2558,48079,0,0,0,0,0.00,0.00,0.00,0.00
2017-04-13 16:50:00,2,49780,0,0.00,2,2,0,2,47796,50000,661,50000,0,0,0,0,0.00,0.00,0.00,0.00
2017-04-13 17:00:00,2,49760,0,0.00,2,2,0,2,48529,50000,495,50000,0,0,0,0,0.00,0.00,0.00,0.00
2017-04-13 17:10:00,2,49246,0,0.00,2,2,0,2,46037,50000,1259,50000,0,0,0,0,0.00,0.00,0.00,0.00
2017-04-13 17:20:00,2,49893,0,0.00,2,2,0,2,49356,50000,204,50000,0,0,0,0,0.00,0.00,0.00,0.00
2017-04-13 17:30:00,2,49295,0,0.00,2,2,0,2,45396,50000,1358,49892,0,0,0,0,0.00,0.00,0.00,0.00
2017-04-13 17:40:00,2,48026,0,0.00,2,2,0,2,44821,50000,1767,48414,0,0,0,0,0.00,0.00,0.00,0.00
2017-04-13 17:50:00,2,46748,0,0.00,2,2,0,2,40299,50000,3123,48010,0,0,0,0,0.00,0.00,0.00,0.00
2017-04-13 18:00:00,2,47876,0,0.00,2,2,0,2,44880,50000,1972,48300,0,0,0,0,0.00,0.00,0.00,0.00
2017-04-13 18:10:00,2,48817,0,0.00,2,2,0,2,43360,50000,1962,49658,0,0,0,0,0.00,0.00,0.00,0.00
2017-04-13 18:20:00,2,47334,0,0.00,2,2,0,2,43872,50000,2258,47332,0,0,0,0,0.00,0.00,0.00,0.00
2017-04-13 18:30:00,2,49825,0,0.00,2,2,0,2,48698,50000,399,50000,0,0,0,0,0.00,0.00,0.00,0.00
2017-04-13 18:40:00,2,47173,0,0.00,2,2,0,2,42649,50000,2794,47796,0,0,0,0,0.00,0.00,0.00,0.00
2017-04-13 18:50:00,2,46230,0,0.00,2,2,0,2,40802,50000,3215,46340,0,0,0,0,0.00,0.00,0.00,0.00
2017-04-13 19:00:00,2,49566,0,0.00,2,2,0,2,48028,50000,638,50000,0,0,0,0,0.00,0.00,0.00,0.00
2017-04-13 19:10:00,2,49588,0,0.00,2,2,0,2,48591,50000,465,49738,0,0,0,0,0.00,0.00,0.00,0.00
2017-04-13 19:20:00,2,49994,0,0.00,2,2,0,2,49935,50000,20,50000,0,0,0,0,0.00,0.00,0.00,0.00
2017-04-13 19:30:00,2,47813,0,0.00,2,2,0,2,43559,50000,2058,48265,0,0,0,0,0.00,0.00,0.00,0.00
2017-04-13 19:40:00,2,49886,0,0.00,2,2,0,2,49311,50000,234,50000,0,0,0,0,0.00,0.00,0.00,0.00
2017-04-13 19:50:00,2,47263,0,0.00,2,2,0,2,41370,50000,2712,47734,0,0,0,0,0.00,0.00,0.00,0.00
2017-04-13 20:00:00,2,48548,0,0.00,2,2,0,2,44239,50000,2194,50000,0,0,0,0,0.00,0.00,0.00,0.00
2017-04-13 20:10:00,2,49874,0,0.00,2,2,0,2,49140,50000,260,50000,0,0,0,0,0.00,0.00,0.00,0.00
2017-04-13 20:20:00,2,49558,0,0.00,2,2,0,2,47763,50000,884,50000,0,0,0,0,0.00,0.00,0.00,0.00
2017-04-13 20:30:00,2,49123,0,0.00,2,2,0,2,43690,50000,1845,49880,0,0,0,0,0.00,0.00,0.00,0.00
2017-04-13 20:40:00,2,48637,0,0.00,2,2,0,2,43457,50000,2044,50000,0,0,0,0,0.00,0.00,0.00,0.00
2017-04-13 20:50:00,2,49100,0,0.00,2,2,0,2,46783,50000,1182,49618,0,0,0,0,0.00,0.00,0.00,0.00
2017-04-13 21:00:00,2,47038,0,0.00,2,2,0,2,40042,50000,3571,49392,0,0,0,0,0.00,0.00,0.00,0.00
2017-04-13 21:10:00,2,48040,0,0.00,2,2,0,2,41821,50000,2308,48279,0,0,0,0,0.00,0.00,0.00,0.00
2017-04-13 21:20:00,2,44633,0,0.00,2,2,0,2,33443,50000,5304,45910,0,0,0,0,0.00,0.00,0.00,0.00
2017-04-13 21:30:00,2,48354,0,0.00,2,2,0,2,42526,50000,2327,49749,0,0,0,0,0.00,0.00,0.00,0.00
2017-04-13 21:40:00,2,45270,0,0.00,2,2,0,2,37119,50000,4005,45568,0,0,0,0,0.00,0.00,0.00,0.00
2017-04-13 21:50:00,2,49364,0,0.00,2,2,0,2,44981,50000,1514,50000,0,0,0,0,0.00,0.00,0.00,0.00
2017-04-13 22:00:00,2,44726,0,0.00,2,2,0,2,36485,50000,4486,46056,0,0,0,0,0.00,0.00,0.00,0.00
2017-04-13 22:10:00,2,39674,0,0.00,2,2,0,2,14430,50000,10183,41610,0,0,0,0,0.00,0.00,0.00,0.00
2017-04-13 22:20:00,2,5856,64,0.17,2,2,0,2,1735,13224,3523,5714,0,71,21,71,0.00,0.35,0.11,0.20
2017-04-13 22:30:00,2,2787,71,0.40,2,2,0,2,866,9834,2871,1356,71,71,0,71,0.00,1.35,0.38,0.33
2017-04-13 22:40:00,2,9085,76,0.04,2,2,0,2,3985,16030,3912,8666,71,78,3,77,0.00,0.20,0.06,0.03
2017-04-13 22:50:00,2,29289,37,0.00,2,2,0,2,10279,46693,12793,29627,0,77,37,36,0.00,0.00,0.00,0.00
2017-04-13 23:00:00,2,20446,38,0.01,2,2,0,2,7849,40645,10724,17462,0,78,38,36,0.00,0.05,0.02,0.00
2017-04-13 23:10:00,2,9936,78,0.07,2,2,0,2,2316,22206,6739,8625,77,78,0,78,0.00,0.25,0.10,0.00
2017-04-13 23:20:00,2,5955,74,0.14,2,2,0,2,2241,14563,4296,3953,71,77,3,74,0.00,0.30,0.11,0.15
2017-04-13 23:30:00,2,23016,76,0.02,2,2,0,2,7927,44531,12887,19342,71,78,3,78,0.00,0.05,0.02,0.00
2017-04-13 23:40:00,2,28525,21,0.01,2,2,0,2,13102,42002,8829,28592,0,71,33,0,0.00,0.10,0.03,0.00
2017-04-13 23:50:00,2,29699,0,0.00,2,2,0,2,15226,45306,9200,27722,0,0,0,0,0.00,0.00,0.00,0.00
